User: anonymous   Login
Location: Mohawk View
(42.7837°N, 73.7885°W)
Time: 21:09:35
(UTC+00:00)
Language:

Cosmos 1844 Rocket - Orbit

View from above orbital plane
View from above orbital plane
View from above satellite
View from above satellite

Ground track
Ground track

The orbit data is extracted from the following two-line orbital elements,

1 17974U 87041B   21266.94229984  .00000020  00000-0  33612-4 0  9993
2 17974  71.0071 223.4777 0013751 181.1527 235.9988 14.17274751777431
Epoch (UTC): 23 September 2021 22:36:54
Eccentricity: 0.0013751
inclination: 71.0071°
perigee height: 824 km
apogee height: 844 km
right ascension of ascending node: 223.4777°
argument of perigee: 181.1527°
revolutions per day: 14.17274751
mean anomaly at epoch: 235.9988°
orbit number at epoch: 77743

The dashed part of the orbit path shows where the satellite is in the earth's shadow,  

DLR